This is the latest recevied weather packets stored in our database for station/object DC5DM-13. If no packets are shown the sender has not sent any weather packets the latest 10 day(s).
| Time | Temp. | Humidity | Pressure | Rain* | Wind** | Luminosity | Snow |
|---|---|---|---|---|---|---|---|
| 1777571429 | 16.67° C | 32% | 1026.7 hPa | 0 mm | - | - | - |
| 1777570861 | 17.22° C | 31% | 1026.8 hPa | 0 mm | - | - | - |
| 1777570229 | 17.78° C | 31% | 1026.7 hPa | 0 mm | - | - | - |
| 1777569661 | 17.78° C | 30% | 1026.7 hPa | 0 mm | - | - | - |
| 1777569029 | 17.78° C | 30% | 1026.6 hPa | 0 mm | - | - | - |
| 1777568461 | 17.78° C | 30% | 1026.7 hPa | 0 mm | - | - | - |
| 1777567829 | 18.33° C | 29% | 1026.7 hPa | 0 mm | - | - | - |
| 1777567260 | 17.78° C | 29% | 1026.7 hPa | 0 mm | - | - | - |
| 1777566622 | 18.33° C | 29% | 1026.8 hPa | 0 mm | - | - | - |
| 1777566058 | 18.89° C | 29% | 1026.8 hPa | 0 mm | - | - | - |
| 1777565421 | 18.89° C | 29% | 1026.9 hPa | 0 mm | - | - | - |
| 1777564852 | 18.89° C | 28% | 1026.9 hPa | 0 mm | - | - | - |
| 1777564221 | 18.89° C | 28% | 1026.9 hPa | 0 mm | - | - | - |
| 1777563653 | 18.89° C | 28% | 1027 hPa | 0 mm | - | - | - |
| 1777563022 | 18.33° C | 29% | 1027 hPa | 0 mm | - | - | - |
| 1777562454 | 18.89° C | 28% | 1027.1 hPa | 0 mm | - | - | - |
| 1777561821 | 18.89° C | 28% | 1026.8 hPa | 0 mm | - | - | - |
| 1777561258 | 18.89° C | 28% | 1027 hPa | 0 mm | - | - | - |
| 1777560622 | 18.89° C | 28% | 1026.9 hPa | 0 mm | - | - | - |
| 1777560054 | 18.33° C | 27% | 1027.1 hPa | 0 mm | - | - | - |
| 1777559477 | 19.44° C | 26% | 1027.3 hPa | 0 mm | - | - | - |
| 1777558846 | 18.89° C | 26% | 1027.3 hPa | 0 mm | - | - | - |
| 1777558277 | 18.89° C | 26% | 1027.5 hPa | 0 mm | - | - | - |
| 1777557646 | 18.89° C | 26% | 1027.6 hPa | 0 mm | - | - | - |
| 1777557082 | 18.89° C | 26% | 1027.7 hPa | 0 mm | - | - | - |
* Rain latest hour (hover to see other rain measurements)
** Current wind speed in m/s (hover to see current wind gust speed)